Overview Statistics Trail Chart Weather Telemetry Raw packets
 

This is the latest recevied weather packets stored in our database for station/object M0HPP-13. If no packets are shown the sender has not sent any weather packets the latest 10 day(s).

<< 1 2 3 4 5 6 >>
Time Temp. Humidity Pressure Rain* Wind** Luminosity Snow
1788613086 16.11° C 63% 1016.4 hPa 0 mm - 463 W/m² -
1788612486 15.56° C 63% 1016.3 hPa 0 mm - 381 W/m² -
1788611886 15.56° C 63% 1016.2 hPa 0 mm - 397 W/m² -
1788611286 15° C 65% 1016.2 hPa 0 mm - 367 W/m² -
1788610686 13.89° C 69% 1016.2 hPa 0 mm - 232 W/m² -
1788610086 13.89° C 70% 1016.2 hPa 0 mm - 131 W/m² -
1788609486 15° C 68% 1015.9 hPa 0 mm - 144 W/m² -
1788608886 14.44° C 73% 1015.8 hPa 0 mm - 287 W/m² -
1788608286 13.33° C 76% 1015.6 hPa 0 mm - 185 W/m² -
1788607686 13.33° C 76% 1015.7 hPa 0 mm - 180 W/m² -
1788607086 14.44° C 73% 1015.4 hPa 0 mm - 175 W/m² -
1788606486 13.89° C 74% 1015.3 hPa 0 mm - 293 W/m² -
1788605886 14.44° C 73% 1015.3 hPa 0 mm - 281 W/m² -
1788605286 14.44° C 71% 1015 hPa 0 mm - 187 W/m² -
1788604686 15° C 70% 1014.8 hPa 0 mm - 303 W/m² -
1788604086 15° C 71% 1014.6 hPa 0 mm - 326 W/m² -
1788603486 14.44° C 73% 1014.5 hPa 0 mm - 358 W/m² -
1788602886 13.89° C 74% 1014.3 hPa 0 mm - 196 W/m² -
1788602286 14.44° C 71% 1013.7 hPa 0 mm - 238 W/m² -
1788600486 12.78° C 78% 1013.5 hPa 0 mm - 182 W/m² -
1788599886 12.22° C 80% 1013.4 hPa 0 mm - 120 W/m² -
1788599286 12.22° C 81% 1013.3 hPa 0 mm - 144 W/m² -
1788598686 12.22° C 82% 1013.1 hPa 0 mm - 133 W/m² -
1788598086 11.67° C 83% 1013 hPa 0 mm - 91 W/m² -
1788597486 12.22° C 82% 1013 hPa 0 mm - 70 W/m² -

* Rain latest hour (hover to see other rain measurements)
** Current wind speed in m/s (hover to see current wind gust speed)